Satellite: AEROCUB3
Catalog number: 35005
Epoch time:      09336.93467375
Element set:    0163
Inclination:      040.4757 deg
RA of node:       309.0194 deg
Eccentricity:    0.0026282
Arg of perigee:   341.3177 deg
Mean anomaly:     018.6672 deg
Mean motion:   15.41544839 rev/day
Decay rate:      9.264e-05 rev/day^2
Epoch rev:           03037
Checksum:              306

Satellite: DRAGNSAT
Catalog number: 35690
Epoch time:      09337.84846737
Element set:     127
Inclination:      051.6362 deg
RA of node:       146.1848 deg
Eccentricity:    0.0004750
Arg of perigee:   203.5095 deg
Mean anomaly:     156.5667 deg
Mean motion:   15.88848540 rev/day
Decay rate:     4.1934e-04 rev/day^2
Epoch rev:            2002
Checksum:              316

Satellite: POLLUX
Catalog number: 35693
Epoch time:      09337.53295321
Element set:     134
Inclination:      051.6373 deg
RA of node:       148.5952 deg
Eccentricity:    0.0004325
Arg of perigee:   164.4182 deg
Mean anomaly:     195.6830 deg
Mean motion:   15.87504426 rev/day
Decay rate:     3.8682e-04 rev/day^2
Epoch rev:            1993
Checksum:              315

Satellite: CASTOR
Catalog number: 35694
Epoch time:      09337.52799177
Element set:     120
Inclination:      051.6392 deg
RA of node:       150.1097 deg
Eccentricity:    0.0004668
Arg of perigee:   148.9848 deg
Mean anomaly:     211.1325 deg
Mean motion:   15.83684657 rev/day
Decay rate:     1.6249e-04 rev/day^2
Epoch rev:            1991
Checksum:              331

Satellite: METEOR-M
Catalog number: 35865
Epoch time:      09337.78241779
Element set:      69
Inclination:      098.7887 deg
RA of node:       027.7010 deg
Eccentricity:    0.0002165
Arg of perigee:   188.9278 deg
Mean anomaly:     171.1821 deg
Mean motion:   14.21827393 rev/day
Decay rate:       1.76e-06 rev/day^2
Epoch rev:            1095
Checksum:              330

/EX
_______________________________________________
Via the Keps mailing list courtesy of AMSAT-NA
http://amsat.org/mailman/listinfo/keps

--- ViaMAIL!/WC v1.60d
 * Origin: Chowdanet (401-724-4410) telnet://chowdanet.com  (1:323/120)